Flag for U.S.A. Weather past 2 weeks in Fort Lauderdale, Florida, U.S.A.

Now
69 °F

Broken clouds.


Feels Like: 69 °F
Forecast: 69 / 74 °F
Wind: 5 mph from North

Location: Fort Lauderdale / Hollywood International Airport

Current Time: Dec 25, 2014 at 10:09:49 AM

Latest Report: Dec 25, 2014 at 8:53 AM


Visibility: 10 mi

Pressure: 30.12 "Hg

Humidity: 90%

Dew point: 66 °F

Location of Fort LauderdaleLocation

Historic Weather in Fort Lauderdale — Graph

°F

Fort Lauderdale temperature yesterday

Maximum temperature yesterday: 82 °F (at 12:53 PM)
Minimum temperature yesterday: 75 °F (at 12:53 AM)
Average temperature yesterday: 78 °F

Past Weeks' High & Low Weather Summary

 TemperatureHumidityPressure
High82 °F (Dec 24, 12:53 PM)97% (Dec 21, 6:53 AM)30.24 "Hg (Dec 21, 6:53 AM)
Low52 °F (Dec 11, 6:53 AM)34% (Dec 10, 1:53 PM)29.90 "Hg (Dec 24, 5:53 AM)
Average68 °F70%30.07 "Hg
* Reported Dec 10 8:53 AM — Dec 25 8:53 AM, Fort Lauderdale, Weather by CustomWeather, © 2014

Note: Actual official high and low records may vary slightly from our data, if they occured in-between our weather recording intervals... More about our weather records

Advertising

Fort Lauderdale weather history for previous 24 hours

 ConditionsComfort  
Time TempWeatherWind HumidityBarometerVisibility
8:53 AM
Dec 25
69 °FBroken clouds.5 mph90%30.12 "Hg10 mi
7:53 AM68 °FBroken clouds.3 mph93%30.11 "Hg10 mi
6:53 AM67 °FPartly cloudy.3 mph93%30.08 "Hg9 mi
5:53 AM68 °FLight rain. Fog.3 mph93%30.06 "Hg3 mi
4:53 AM68 °FPartly cloudy.9 mph90%30.03 "Hg9 mi
3:56 AM72 °FLight rain. Mostly cloudy.10 mph97%30.02 "Hg7 mi
2:53 AM74 °FRain. Fog.14 mph94%29.98 "Hg6 mi
1:53 AM77 °FLight rain. Mostly cloudy.12 mph94%29.96 "Hg8 mi
12:53 AM77 °FPassing clouds.12 mph94%29.96 "Hg10 mi
11:53 PM
Dec 24
77 °FPassing clouds.13 mph90%29.96 "Hg10 mi
10:53 PM77 °FOvercast.10 mph90%29.98 "Hg10 mi
9:53 PM77 °FMostly cloudy.10 mph94%29.97 "Hg10 mi
8:53 PM77 °FOvercast.9 mph94%29.96 "Hg10 mi
7:53 PM77 °FPassing clouds.7 mph94%29.96 "Hg9 mi
6:53 PM77 °FLight rain. Mostly cloudy.10 mph94%29.95 "Hg8 mi
5:53 PM78 °FOvercast.14 mph87%29.93 "Hg10 mi
4:53 PM79 °FMostly cloudy.15 mph79%29.92 "Hg10 mi
3:53 PM80 °FMore clouds than sun.13 mph76%29.91 "Hg10 mi
2:59 PM81 °FPartly sunny.15 mph74%29.92 "Hg10 mi
1:53 PM80 °FBroken clouds.16 mph79%29.92 "Hg10 mi
12:53 PM82 °FBroken clouds.17 mph72%29.92 "Hg10 mi
11:53 AM81 °FPartly sunny.14 mph74%29.95 "Hg10 mi
10:53 AM81 °FBroken clouds.13 mph77%29.97 "Hg10 mi
Weather by CustomWeather, © 2014

See weather overviewHow to use our weather pages